EW8555 Weather Reports


time (UTC)temp
C
wind
direction
speed
KPH
gust
KPH
rain 1hr
cm
rain 24hr
cm
rain mn
cm
humidity
%
barometer
mb
20260831191522 15 238 4.8 17.7 0.41 0.61 0.61 84 1010.3
20260831190121 17 235 12.9 33.8 0.23 0.43 0.43 78 1011.1
20260831184546 17 252 1.6 12.9 0.00 0.20 0.20 78 1010.0
20260831183054 17 266 0.0 12.9 0.00 0.20 0.20 77 1009.6
20260831181548 17 297 4.8 9.7 0.00 0.20 0.20 75 1009.4
20260831180058 18 300 9.7 20.9 0.00 0.20 0.20 70 1009.5
20260831174550 19 268 16.1 35.4 0.00 0.20 0.20 62 1009.8
20260831173043 20 300 11.3 22.5 0.00 0.20 0.20 56 1009.5
20260831171543 21 284 9.7 22.5 0.00 0.20 0.20 54 1009.1
20260831170044 22 267 20.9 37.0 0.00 0.20 0.20 53 1009.1
20260831164547 23 221 16.1 37.0 0.00 0.20 0.20 49 1008.8
20260831163043 23 213 16.1 29.0 0.00 0.20 0.20 47 1008.5
20260831161549 23 245 12.9 33.8 0.00 0.20 0.20 47 1008.3
20260831160039 23 246 6.4 30.6 0.00 0.20 0.20 49 1008.3
20260831154539 24 269 8.0 27.4 0.00 0.20 0.20 49 1008.1
20260831153037 25 244 9.7 32.2 0.00 0.20 0.20 47 1008.2
20260831151536 25 237 9.7 30.6 0.00 0.20 0.20 49 1008.2
20260831150034 24 229 11.3 25.7 0.00 0.20 0.20 50 1008.2
20260831144533 24 265 11.3 32.2 0.00 0.20 0.20 50 1008.3
20260831143032 25 170 19.3 33.8 0.00 0.20 0.20 50 1008.4
20260831141535 25 193 19.3 37.0 0.00 0.20 0.20 48 1008.4
20260831140029 24 315 12.9 29.0 0.00 0.20 0.20 52 1008.5
20260831134527 24 178 12.9 29.0 0.00 0.20 0.20 55 1008.7
20260831133029 24 246 6.4 17.7 0.00 0.20 0.20 57 1008.7
20260831131522 23 252 11.3 25.7 0.00 0.20 0.20 57 1008.8
20260831130024 23 188 14.5 35.4 0.00 0.20 0.20 60 1008.9
20260831124523 23 217 9.7 29.0 0.00 0.20 0.20 61 1009.0
20260831123018 23 178 6.4 37.0 0.00 0.20 0.20 64 1009.1
20260831121514 22 213 14.5 27.4 0.00 0.20 0.20 65 1009.1
20260831120014 22 269 8.0 29.0 0.00 0.20 0.20 68 1009.2
20260831114512 22 252 8.0 27.4 0.00 0.20 0.20 66 1009.1
20260831113011 22 217 17.7 35.4 0.00 0.20 0.20 66 1009.0
20260831111509 22 215 16.1 33.8 0.00 0.20 0.20 67 1009.1
20260831110009 22 198 8.0 27.4 0.00 0.20 0.20 69 1009.2
20260831104503 21 201 9.7 24.1 0.00 0.20 0.20 71 1009.3
20260831103001 21 219 8.0 24.1 0.00 0.20 0.20 73 1009.3
20260831101600 21 214 12.9 24.1 0.00 0.20 0.20 74 1009.4
20260831100116 20 223 6.4 24.1 0.00 0.20 0.20 78 1009.3
20260831094555 20 184 14.5 25.7 0.00 0.20 0.20 79 1009.5
20260831093053 20 186 6.4 14.5 0.00 0.20 0.20 83 1009.6
20260831091551 19 248 4.8 16.1 0.00 0.20 0.20 90 1009.5
20260831090047 18 197 4.8 17.7 0.00 0.20 0.20 92 1009.7
20260831084552 17 250 1.6 14.5 0.03 0.20 0.20 93 1009.6
20260831083047 16 228 6.4 11.3 0.13 0.20 0.20 93 1009.6
20260831081546 16 231 1.6 8.0 0.13 0.20 0.20 92 1009.6
20260831080054 16 246 1.6 11.3 0.15 0.20 0.20 92 1010.0
20260831074542 15 260 1.6 11.3 0.15 0.18 0.18 91 1009.9
20260831073041 15 252 3.2 12.9 0.05 0.08 0.08 90 1009.7
20260831071540 15 248 4.8 11.3 0.05 0.05 0.05 89 1009.5
20260831070039 15 252 6.4 14.5 0.05 0.05 0.05 88 1009.5
20260831064537 15 240 4.8 12.9 0.03 0.03 0.03 86 1009.4
20260831063038 15 182 6.4 14.5 0.00 0.00 0.00 84 1009.2
20260831061538 16 190 9.7 19.3 0.00 0.00 0.00 82 1009.3
20260831060037 15 194 11.3 16.1 0.00 0.00 0.00 80 1009.1
20260831054536 15 229 4.8 8.0 0.00 0.00 0.00 83 1009.1
20260831053036 14 217 0.0 4.8 0.00 0.00 0.00 86 1008.9
20260831051540 13 217 0.0 1.6 0.00 0.00 0.00 87 1008.9
20260831050034 13 217 0.0 1.6 0.00 0.00 0.00 87 1008.9
20260831044534 13 217 0.0 1.6 0.00 0.00 0.00 85 1009.0
20260831043031 13 217 0.0 1.6 0.00 0.00 0.00 85 1009.1
20260831041544 14 217 0.0 3.2 0.00 0.00 0.00 86 1008.9
20260831040030 13 217 0.0 0.0 0.00 0.00 0.00 86 1008.8
20260831034527 13 217 0.0 3.2 0.00 0.03 0.00 86 1008.9
20260831033027 13 217 0.0 0.0 0.00 0.03 0.00 85 1009.4
20260831031526 13 217 1.6 3.2 0.00 0.03 0.00 83 1009.4
20260831030019 14 217 0.0 0.0 0.00 0.03 0.00 81 1009.3
20260831024519 15 217 0.0 1.6 0.00 0.03 0.00 81 1009.5
20260831023016 15 217 0.0 4.8 0.00 0.03 0.00 81 1009.6
20260831021526 15 217 0.0 3.2 0.00 0.03 0.00 81 1009.6
20260831020111 15 217 0.0 0.0 0.00 0.03 0.00 79 1009.8
20260831014513 15 217 1.6 6.4 0.00 0.03 0.00 79 1009.9
20260831013009 15 217 0.0 3.2 0.00 0.03 0.00 79 1010.1
20260831011512 16 217 1.6 3.2 0.00 0.03 0.00 78 1010.3
20260831010005 16 217 0.0 3.2 0.00 0.03 0.00 76 1010.4
20260831004559 16 217 0.0 4.8 0.00 0.03 0.00 74 1010.5
20260831003058 17 217 3.2 8.0 0.00 0.03 0.00 74 1010.6
20260831001604 17 217 3.2 8.0 0.00 0.03 0.00 74 1010.7
20260831000056 17 207 4.8 9.7 0.00 0.03 0.00 73 1010.7
20260830234553 17 207 4.8 9.7 0.00 0.03 0.00 73 1010.8
20260830233059 17 244 3.2 6.4 0.00 0.03 0.00 73 1010.6
20260830231600 17 225 6.4 11.3 0.00 0.03 0.00 73 1010.7
20260830230054 17 225 3.2 9.7 0.00 0.03 0.00 73 1010.7
20260830224609 17 244 3.2 8.0 0.00 0.03 0.00 73 1010.6
20260830223054 17 284 1.6 4.8 0.00 0.03 0.00 74 1010.6
20260830221551 17 284 0.0 0.0 0.00 0.03 0.00 73 1010.7
20260830220053 18 284 0.0 1.6 0.00 0.03 0.00 70 1010.6
20260830214554 18 284 1.6 4.8 0.00 0.03 0.03 69 1010.7
20260830213046 18 284 1.6 4.8 0.00 0.03 0.03 69 1010.8
20260830211543 18 284 1.6 4.8 0.00 0.03 0.03 67 1010.7
20260830210042 19 284 3.2 4.8 0.00 0.03 0.03 66 1010.7
20260830204540 19 284 1.6 6.4 0.00 0.03 0.03 66 1010.7
20260830203040 20 287 3.2 4.8 0.00 0.03 0.03 65 1010.6
20260830201541 20 287 1.6 4.8 0.00 0.03 0.03 64 1010.6
20260830200039 20 287 1.6 4.8 0.00 0.03 0.03 62 1010.6
20260830194539 21 287 3.2 4.8 0.00 0.03 0.03 61 1010.6
20260830193040 21 287 1.6 6.4 0.00 0.03 0.03 60 1010.6